Simultaneous Nadir Overpasses (SNOs) Predictions

Prediction of SNOs between AQUA and GOES-15 Satellite Orbit:

Table of predicted SNOs for the next 14.0 days since TLE Epoch: 12/31/2022
Index Date Time (AQUA) AQUA Lat,Lon GOES-15 Lat,Lon Distance(km) Time Diff (sec)
1 12/31/2022 10:04:41 -0.51,-125.40 -0.00,-127.76 267.94 80
2 12/31/2022 22:25:51 -0.59,-130.53 0.01,-127.70 322.04 80
3 01/02/2023 22:12:49 0.10,-127.36 0.00,-127.76 46.07 80
4 01/04/2023 21:59:46 0.76,-124.18 -0.01,-127.82 413.77 80
5 01/05/2023 10:20:49 0.28,-129.28 0.00,-127.90 156.76 80
6 01/07/2023 10:07:46 -0.41,-126.11 0.01,-127.95 210.73 80
7 01/07/2023 22:28:56 -0.70,-131.23 -0.00,-127.90 378.88 80
8 01/09/2023 22:15:52 -0.02,-128.05 -0.01,-127.95 11.60 80
9 01/11/2023 22:02:48 0.68,-124.87 -0.01,-127.99 355.65 80
10 01/12/2023 10:23:50 0.40,-129.96 0.00,-128.07 215.49 80
